Location: Arrodets-la-Barthe
(43.0306°N, 0.2829°E)
Time: 10:32:32
(UTC+00:00)

CSL-04 Rocket - Pass Details

Date: 07 June 2022
Orbit: 807 x 859 km, 98.9° (Epoch: 30 June)

Event Time Altitude Azimuth Distance (km) Brightness Sun altitude
Rises 20:05:31 0° 180° (S) 3,336 6.4 -5.3°
Reaches altitude 10° 20:07:54 10° 186° (S) 2,416 5.8 -5.6°
Maximum altitude 20:13:04 48° 261° (W) 1,074 4.6 -6.3°
Drops below altitude 10° 20:18:21 10° 335° (NNW) 2,466 7.4 -7.1°
Sets 20:20:50 0° 341° (NNW) 3,413 8.0 -7.4°
